Weather History for Colorado Springs, CO

Change the Weather History Date:

Tuesday, October 30, 2012

  Actual Average Record
Temperature  
Mean Temperature 53 °F 45 °F  
Max Temperature 67 °F 58 °F 78 °F (1933)
Min Temperature 38 °F 31 °F 1 °F (1917)
Degree Days  
Heating Degree Days 12 20  
Month to date heating degree days 472 464  
Since 1 July heating degree days 588 654  
Cooling Degree Days 0 0  
Month to date cooling degree days 0 0  
Year to date cooling degree days 873 454  
Growing Degree Days 2 (Base 50)    
Moisture  
Dew Point 24 °F    
Average Humidity 38    
Maximum Humidity 54    
Minimum Humidity 22    
Precipitation  
Precipitation 0.00 in 0.02 in 0.90 in (1903)
Month to date precipitation 0.14 0.80  
Year to date precipitation 7.83 15.78  
Snow  
Snow 0.00 in 0.10 in 4.40 in (1991)
Month to date snowfall 0.6 2.8  
Since 1 July snowfall 0.6 3.0  
Since 1 September snowfall 0.6 3.0  
Snow Depth 0.00 in    
Sea Level Pressure  
Sea Level Pressure 30.09 in    
Wind  
Wind Speed 6 mph (North)    
Max Wind Speed 14 mph    
Max Gust Speed 17 mph    
Visibility 10 miles    
Events      
T = Trace of Precipitation, MM = Missing Value Source: NWS Daily Summary

Daily Weather History Graph

Daily Weather History Graph

Search for Another Location

Airport:

Trip Planner

Search our weather history database for the weather conditions in past years. The results will help you decide how hot, cold, wet, or windy it might be!

Date:

Astronomy

Oct. 30, 2012 Rise Set
Actual Time 7:24 AM MDT 5:59 PM MDT
Civil Twilight 6:56 AM MDT 6:27 PM MDT
Nautical Twilight 6:25 AM MDT 6:58 PM MDT
Astronomical Twilight 5:54 AM MDT 7:29 PM MDT
Moon 6:32 PM MDT (10/30) 8:12 AM MDT (10/30)
Length of Visible Light 11h 30m
Length of Day
10h 35m
Full, 99% of the Moon is Illuminated
Oct 30
Full
Nov 6
Last Quarter
Nov 13
New
Nov 20
First Quarter
Nov 28
Full

Hourly Weather History & Observations

Time (MDT) Temp. Windchill Dew Point Humidity Pressure Visibility Wind Dir Wind Speed Gust Speed Precip Events Conditions
12:54 AM 39.2 °F 33.0 °F 24.8 °F 56% 30.19 in 10.0 mi North 9.2 mph - N/A   Clear
1:54 AM 41.0 °F 37.1 °F 23.0 °F 49% 30.05 in 10.0 mi WSW 5.8 mph - N/A   Clear
2:54 AM 45.0 °F 40.6 °F 23.0 °F 42% 30.05 in 10.0 mi North 8.1 mph - N/A   Clear
3:54 AM 46.9 °F - 23.0 °F 39% 30.03 in 10.0 mi NNW 8.1 mph - N/A   Clear
4:54 AM 46.0 °F 41.4 °F 23.0 °F 40% 30.06 in 10.0 mi NNW 9.2 mph - N/A   Clear
5:54 AM 46.9 °F - 21.9 °F 37% 30.08 in 10.0 mi NNW 5.8 mph - N/A   Clear
6:54 AM 43.0 °F 38.8 °F 23.0 °F 45% 30.10 in 10.0 mi NNE 6.9 mph - N/A   Clear
7:54 AM 43.0 °F 39.5 °F 23.0 °F 45% 30.18 in 10.0 mi WNW 5.8 mph - N/A   Clear
8:54 AM 54.0 °F - 25.0 °F 33% 30.15 in 10.0 mi NNW 3.5 mph - N/A   Clear
9:54 AM 59.0 °F - 24.1 °F 26% 30.15 in 10.0 mi West 5.8 mph - N/A   Clear
10:54 AM 62.1 °F - 25.0 °F 24% 30.13 in 10.0 mi Calm Calm - N/A   Clear
11:54 AM 64.0 °F - 26.1 °F 24% 30.12 in 10.0 mi SSE 6.9 mph 17.3 mph N/A   Clear
12:54 PM 64.0 °F - 25.0 °F 23% 30.09 in 10.0 mi ESE 6.9 mph - N/A   Clear
1:54 PM 64.9 °F - 25.0 °F 22% 30.05 in 10.0 mi Variable 4.6 mph - N/A   Clear
2:54 PM 64.9 °F - 24.1 °F 21% 30.01 in 10.0 mi SSW 9.2 mph - N/A   Clear
3:54 PM 64.9 °F - 24.1 °F 21% 30.00 in 10.0 mi ESE 6.9 mph - N/A   Clear
4:54 PM 64.0 °F - 24.1 °F 22% 30.01 in 10.0 mi SSE 9.2 mph - N/A   Clear
5:54 PM 59.0 °F - 24.1 °F 26% 30.04 in 10.0 mi SSE 6.9 mph - N/A   Clear
6:54 PM 57.0 °F - 24.1 °F 28% 30.09 in 10.0 mi SSE 4.6 mph - N/A   Clear
7:54 PM 51.1 °F - 24.1 °F 35% 30.14 in 10.0 mi Calm Calm - N/A   Clear
8:54 PM 46.9 °F - 24.1 °F 41% 30.11 in 10.0 mi Calm Calm - N/A   Clear
9:54 PM 44.1 °F 42.5 °F 25.0 °F 47% 30.11 in 10.0 mi NNW 3.5 mph - N/A   Clear
10:54 PM 44.1 °F 40.1 °F 25.0 °F 47% 30.10 in 10.0 mi North 6.9 mph - N/A   Clear
11:54 PM 48.0 °F - 25.0 °F 41% 30.07 in 10.0 mi East 3.5 mph - N/A   Clear